Home   Weather   Kuala Lumpur   Past weeks
Flag for Malaysia

Past Weather in Kuala Lumpur, Malaysia — May 2018

Now
88 °F

Partly sunny.


Feels Like: 98 °F
Forecast: 87 / 76 °F
Wind: 6 mph from Southeast

Location: Sultan Abdul Aziz Shah-Subang

Current Time: Aug 20, 2019 at 11:03:17 am

Latest Report: Aug 20, 2019 at 10:00 am


Visibility: 5 mi

Pressure: 29.86 "Hg

Humidity: 66%

Dew Point: 75 °F

Location of Kuala LumpurLocation

May 2018 Weather in Kuala Lumpur — Graph

°F

High & Low Weather Summary for May 2018

 TemperatureHumidityPressure
High95 °F (May 9, 2:00 pm)100% (May 13, 3:00 am)29.92 "Hg (May 13, 3:00 am)
Low73 °F (May 4, 5:00 am)49% (May 6, 2:00 pm)29.68 "Hg (May 14, 5:00 pm)
Average82 °F81%29.80 "Hg
* Reported May 1 12:00 am — May 31 11:00 pm, Kuala Lumpur. Weather by CustomWeather, © 2019

Note: Actual official high and low records may vary slightly from our data, if they occured in-between our weather recording intervals... More about our weather records

Advertising

Kuala Lumpur Weather History for May 1, 2018

Scroll right to see more
 ConditionsComfort  
Time TempWeatherWind HumidityBarometerVisibility
12:00 am
Tue, May 1
79 °FPartly cloudy.No wind94%29.83 "Hg5 mi
1:00 am79 °FPartly cloudy.No wind94%29.83 "Hg5 mi
2:00 am79 °FPartly cloudy.No wind94%29.83 "Hg5 mi
3:00 am79 °FPartly cloudy.No wind89%29.80 "Hg5 mi
4:00 am77 °FPassing clouds.No wind94%29.80 "Hg5 mi
5:00 am77 °FPassing clouds.No wind94%29.80 "Hg5 mi
6:00 am77 °FPartly cloudy.No wind94%29.80 "Hg5 mi
7:00 am77 °FPartly cloudy.No wind94%29.83 "Hg6 mi
8:00 am79 °FPartly cloudy.1 mph89%29.83 "Hg6 mi
9:00 am82 °FBroken clouds.No wind79%29.86 "HgN/A
10:00 am86 °FBroken clouds.2 mph70%29.89 "HgN/A
11:00 am88 °FPartly sunny.2 mph66%29.89 "HgN/A
12:00 pm90 °FPartly sunny.3 mph59%29.89 "HgN/A
1:00 pm91 °FPartly sunny.5 mph56%29.86 "HgN/A
2:00 pm90 °FBroken clouds.9 mph63%29.83 "HgN/A
3:00 pm84 °FBroken clouds.9 mph74%29.80 "HgN/A
4:00 pm82 °FRain showers. Partly sunny.6 mph84%29.80 "Hg4 mi
5:00 pm82 °FThunderstorms. Broken clouds.5 mph79%29.80 "HgN/A
6:00 pm79 °FThunderstorms. More clouds than sun.6 mph89%29.80 "Hg4 mi
7:00 pm79 °FOvercast.3 mph89%29.83 "HgN/A
8:00 pm79 °FLight rain. More clouds than sun.5 mph89%29.86 "HgN/A
9:00 pm79 °FPartly cloudy.2 mph89%29.86 "HgN/A
10:00 pm79 °FLight rain. Mostly cloudy.2 mph89%29.89 "Hg6 mi
11:00 pm79 °FMostly cloudy.No wind89%29.92 "Hg6 mi
Weather by CustomWeather, © 2019

See weather overview